Location: Jastrz?bniki
(50.3667°N, 20.3833°E)
Time: 11:47:58
(UTC+00:00)

CZ-2D R/B - Pass Details

Date: 05 August 2024
Orbit: 790 x 843 km, 98.8° (Epoch: 06 September)

Event Time Altitude Azimuth Distance (km) Brightness Sun altitude
Rises 01:41:41 0° 10° (N) 3,313 6.3 -12.3°
Reaches altitude 10° 01:44:06 10° 4° (N) 2,384 5.3 -12.1°
Maximum altitude 01:49:01 42° 295° (WNW) 1,145 2.8 -11.5°
Enters shadow 01:53:06 15° 230° (SW) 2,085 3.6 -11.1°
